Погода в Спицине

Россия / Псковская область     58°31′35″N   27°51′33″E
темп.,
°C
ветер,
м/с
пор.,
м/с
влажн.,
%
обл.,
%
осадки,
мм/ч
давл.,
гПа
погр.,
м
4 июля, пн
пн400:00+18св23882 0.0 101984
03:00+17св22840 0.0 101978
06:00+17с22752 0.0 1018141
09:00+19ссз22655 0.0 1018285
12:00+20сз21615 0.0 1017393
15:00+21ссз325322 0.0 1016417
18:00+21сз236435 0.2 101491
21:00+20зсз1174100 1.1 101330
5 июля, вт
вт500:00+19юз118075 0.1 101321
03:00+19з3480100 0.1 1013121
06:00+18зюз34790 0.0 1013166
09:00+19зюз347333 0.0 1013296
12:00+21юз35705 0.1 1013378
15:00+22зюз696698 0.4 1013420
18:00+22з7105883 0.0 1013507
21:00+20з8116346 0.0 1014675
6 июля, ср
ср600:00+18з79630 0.0 1015571
03:00+16з46760 0.0 1015333
06:00+15зюз578268 0.0 1015399
09:00+17юз5674100 0.0 1014602
12:00+19юз455399 0.0 10141248
15:00+21ююз3550100 0.0 10121099
18:00+19юз345998 0.0 1011358
21:00+19юз47675 0.2 1010427
7 июля, чт
чт700:00+17з67715 0.9 1011564
03:00+16з57778 1.0 1011460
06:00+15зюз56841 0.3 1012446
09:00+16юз56754 0.6 1013705
12:00+18юз455529 0.1 10131248
15:00+19ю2352100 0.1 1013680
18:00+19ююв345999 0.0 1013492
21:00+19ююз7963100 0.0 1013486
8 июля, пт
пт800:00+18юз687796 0.9 1014457
03:00+16юз6884100 1.6 1014391
06:00+16юз6984100 0.2 1014529
09:00+15ююз5986100 1.6 1015637
12:00+16ююз81086100 0.7 1015836
15:00+17юз6784100 1.4 1015753
18:00+16ссз788589 1.4 1015704
21:00+16ссз12711 1.4 1015272